Flag for Brazil Weather past 2 weeks in Natal, Rio Grande do Norte, Brazil

Now
79 °F

Passing clouds.


Feels Like: 82 °F
Forecast: 79 / 87 °F
Wind: 6 mph from South

Location: Natal Aeroporto

Current Time: Mar 4, 2015 at 9:17:07 PM

Latest Report: Mar 4, 2015 at 9:00 PM


Visibility: N/A

Pressure: 29.92 "Hg

Humidity: 79%

Dew point: 72 °F

Location of NatalLocation

Historic Weather in Natal — Graph

°F

Natal temperature yesterday

Maximum temperature yesterday: 88 °F (at 1:00 PM)
Minimum temperature yesterday: 75 °F (at 6:00 AM)
Average temperature yesterday: 81 °F

Past Weeks' High & Low Weather Summary

 TemperatureHumidityPressure
High88 °F (Feb 18, 11:00 AM)100% (Feb 20, 8:00 AM)30.01 "Hg (Feb 20, 8:00 AM)
Low39 °F (Feb 20, 11:00 AM)49% (Feb 27, 2:00 PM)29.77 "Hg (Feb 27, 3:00 AM)
Average80 °F75%29.88 "Hg
* Reported Feb 17 7:00 PM — Mar 4 7:00 PM, Natal, Weather by CustomWeather, © 2015

Note: Actual official high and low records may vary slightly from our data, if they occured in-between our weather recording intervals... More about our weather records

Advertising

Natal weather history for previous 24 hours

 ConditionsComfort  
Time TempWeatherWind HumidityBarometerVisibility
7:00 PM
Wed, Mar 4
81 °FPassing clouds.10 mph74%29.86 "HgN/A
6:00 PM81 °FPassing clouds.13 mph74%29.86 "HgN/A
5:00 PM82 °FPassing clouds.16 mph70%29.83 "HgN/A
4:00 PM84 °FPassing clouds.16 mph62%29.83 "HgN/A
3:00 PM86 °FScattered clouds.15 mph59%29.83 "HgN/A
2:00 PM86 °FScattered clouds.14 mph59%29.83 "HgN/A
1:00 PM86 °FScattered clouds.14 mph59%29.86 "HgN/A
12:00 PM82 °FBroken clouds.9 mph70%29.89 "HgN/A
11:00 AM84 °FBroken clouds.14 mph66%29.92 "HgN/A
10:00 AM82 °FScattered showers. Broken clouds.6 mph74%29.92 "HgN/A
9:00 AM79 °FBroken clouds.8 mph84%29.92 "HgN/A
8:00 AM79 °FScattered showers. Broken clouds.5 mph84%29.92 "HgN/A
7:00 AM79 °FScattered showers. Broken clouds.8 mph79%29.89 "HgN/A
6:00 AM77 °FPartly sunny.6 mph83%29.86 "HgN/A
5:00 AM77 °FPassing clouds.3 mph83%29.83 "HgN/A
4:00 AM79 °FPassing clouds.8 mph79%29.80 "HgN/A
3:00 AM79 °FPassing clouds.8 mph79%29.80 "HgN/A
2:00 AM79 °FPassing clouds.6 mph79%29.83 "HgN/A
1:00 AM79 °FPassing clouds.8 mph79%29.83 "HgN/A
12:00 AM79 °FPartly cloudy.8 mph79%29.86 "HgN/A
11:00 PM
Tue, Mar 3
79 °FPassing clouds.8 mph79%29.89 "HgN/A
10:00 PM79 °FPassing clouds.8 mph79%29.89 "HgN/A
9:00 PM81 °FPassing clouds.8 mph74%29.89 "HgN/A
Weather by CustomWeather, © 2015

See weather overviewHow to use our weather pages